Location: Sebastopol
(38.4021°N, 122.8239°W)
Time: 14:47:34
(UTC+00:00)

Cosmos 2058 Rocket - Pass Details

Date: 29 October 2020
Orbit: 610 x 640 km, 82.5° (Epoch: 01 December)

Event Time Altitude Azimuth Distance (km) Brightness Sun altitude
Rises 13:51:09 0° 342° (NNW) 2,941 6.2 -9.2°
Reaches altitude 10° 13:53:34 10° 332° (NNW) 2,024 5.3 -8.7°
Maximum altitude 13:57:33 32° 270° (W) 1,084 3.8 -8.0°
Drops below altitude 10° 14:01:29 10° 207° (SSW) 1,994 5.5 -7.2°
Sets 14:03:52 0° 197° (SSW) 2,891 6.4 -6.8°
